| time (UTC) | temp F | wind direction | speed MPH | gust MPH | rain 1hr in | rain 24hr in | rain mn in | humidity % | barometer mb |
| 20260503185012 | 62 | 86 | 4.0 | 10.0 | 0.00 | 0.00 | 0.00 | 33 | 1016.6 |
| 20260503185002 | 57 | 265 | 0.0 | 4.0 | 0.00 | 0.00 | 0.00 | 26 | 1009.3 |
| 20260503184525 | 62 | 355 | 2.0 | 12.0 | 0.00 | 0.00 | 0.00 | 38 | 1016.7 |
| 20260503184503 | 57 | 266 | 1.0 | 5.0 | 0.00 | 0.00 | 0.00 | 24 | 1009.3 |
| 20260503184009 | 62 | 143 | 3.0 | 12.0 | 0.00 | 0.00 | 0.00 | 33 | 1016.8 |
| 20260503184003 | 57 | 139 | 1.0 | 4.0 | 0.00 | 0.00 | 0.00 | 26 | 1009.4 |
| 20260503183502 | 57 | 270 | 1.0 | 6.0 | 0.00 | 0.00 | 0.00 | 24 | 1009.4 |
| 20260503183012 | 61 | 108 | 3.0 | 9.0 | 0.00 | 0.00 | 0.00 | 34 | 1017.0 |
| 20260503183002 | 57 | 126 | 2.0 | 6.0 | 0.00 | 0.00 | 0.00 | 26 | 1009.6 |
| 20260503182507 | 61 | 160 | 2.0 | 10.0 | 0.00 | 0.00 | 0.00 | 38 | 1017.0 |
| 20260503182500 | 56 | 269 | 1.0 | 4.0 | 0.00 | 0.00 | 0.00 | 25 | 1009.6 |
| 20260503182100 | 56 | 229 | 1.0 | 5.0 | 0.00 | 0.00 | 0.00 | 25 | 1009.5 |
| 20260503182006 | 61 | 114 | 2.0 | 10.0 | 0.00 | 0.00 | 0.00 | 36 | 1017.1 |
| 20260503181602 | 56 | 240 | 1.0 | 10.0 | 0.00 | 0.00 | 0.00 | 26 | 1009.5 |
| 20260503181512 | 61 | 110 | 4.0 | 7.0 | 0.00 | 0.00 | 0.00 | 35 | 1017.1 |
| 20260503181159 | 55 | 322 | 2.0 | 6.0 | 0.00 | 0.00 | 0.00 | 25 | 1009.6 |
| 20260503181008 | 62 | 143 | 3.0 | 8.0 | 0.00 | 0.00 | 0.00 | 37 | 1017.2 |
| 20260503180557 | 55 | 308 | 1.0 | 5.0 | 0.00 | 0.00 | 0.00 | 28 | 1009.7 |
| 20260503180508 | 61 | 127 | 2.0 | 10.0 | 0.00 | 0.00 | 0.00 | 37 | 1017.2 |
| 20260503180057 | 54 | 226 | 0.0 | 4.0 | 0.00 | 0.00 | 0.00 | 30 | 1009.8 |
| 20260503180021 | 61 | 31 | 4.0 | 10.0 | 0.00 | 0.00 | 0.00 | 38 | 1017.3 |
| 20260503175556 | 54 | 360 | 0.0 | 5.0 | 0.00 | 0.00 | 0.00 | 30 | 1009.7 |
| 20260503175509 | 61 | 329 | 2.0 | 13.0 | 0.00 | 0.00 | 0.00 | 36 | 1017.3 |
| 20260503175055 | 54 | 219 | 1.0 | 5.0 | 0.00 | 0.00 | 0.00 | 30 | 1009.9 |
| 20260503175007 | 61 | 114 | 3.0 | 13.0 | 0.00 | 0.00 | 0.00 | 38 | 1017.4 |
| 20260503174612 | 54 | 298 | 1.0 | 6.0 | 0.00 | 0.00 | 0.00 | 26 | 1009.9 |
| 20260503174529 | 60 | 126 | 3.0 | 9.0 | 0.00 | 0.00 | 0.00 | 36 | 1017.5 |
| 20260503174055 | 54 | 270 | 1.0 | 6.0 | 0.00 | 0.00 | 0.00 | 33 | 1010.1 |
| 20260503174007 | 60 | 314 | 3.0 | 8.0 | 0.00 | 0.00 | 0.00 | 37 | 1017.5 |
| 20260503173555 | 53 | 262 | 0.0 | 4.0 | 0.00 | 0.00 | 0.00 | 31 | 1010.0 |
| 20260503173511 | 60 | 134 | 4.0 | 10.0 | 0.00 | 0.00 | 0.00 | 37 | 1017.6 |
| 20260503173057 | 53 | 226 | 1.0 | 7.0 | 0.00 | 0.00 | 0.00 | 32 | 1010.2 |
| 20260503173027 | 60 | 106 | 3.0 | 10.0 | 0.00 | 0.00 | 0.00 | 37 | 1017.7 |
| 20260503172555 | 53 | 360 | 0.0 | 7.0 | 0.00 | 0.00 | 0.00 | 34 | 1010.1 |
| 20260503172509 | 60 | 120 | 5.0 | 10.0 | 0.00 | 0.00 | 0.00 | 34 | 1017.9 |
| 20260503172055 | 53 | 360 | 2.0 | 5.0 | 0.00 | 0.00 | 0.00 | 31 | 1010.1 |
| 20260503172003 | 60 | 122 | 5.0 | 10.0 | 0.00 | 0.00 | 0.00 | 35 | 1018.0 |
| 20260503171554 | 53 | 284 | 2.0 | 5.0 | 0.00 | 0.00 | 0.00 | 30 | 1010.0 |
| 20260503171521 | 60 | 131 | 3.0 | 8.0 | 0.00 | 0.00 | 0.00 | 35 | 1018.1 |
| 20260503171155 | 53 | 360 | 0.0 | 4.0 | 0.00 | 0.00 | 0.00 | 32 | 1010.2 |
| 20260503171008 | 60 | 143 | 4.0 | 8.0 | 0.00 | 0.00 | 0.00 | 35 | 1018.2 |
| 20260503170555 | 53 | 203 | 1.0 | 4.0 | 0.00 | 0.00 | 0.00 | 32 | 1010.1 |
| 20260503170506 | 59 | 129 | 3.0 | 9.0 | 0.00 | 0.00 | 0.00 | 35 | 1018.2 |
| 20260503151002 | 54 | 154 | 1.0 | 8.0 | 0.00 | 0.00 | 0.00 | 52 | 1019.5 |
| 20260503150550 | 51 | 350 | 1.0 | 4.0 | 0.00 | 0.00 | 0.00 | 30 | 1010.4 |
| 20260503150507 | 54 | 134 | 3.0 | 8.0 | 0.00 | 0.00 | 0.00 | 51 | 1019.5 |
| 20260503131140 | 50 | 360 | 1.0 | 4.0 | 0.00 | 0.00 | 0.00 | 42 | 1010.3 |
| 20260503131007 | 47 | 130 | 2.0 | 5.0 | 0.00 | 0.00 | 0.00 | 61 | 1019.4 |
| 20260503130540 | 50 | 360 | 0.0 | 4.0 | 0.00 | 0.00 | 0.00 | 39 | 1010.4 |
| 20260503130504 | 46 | 122 | 1.0 | 5.0 | 0.00 | 0.00 | 0.00 | 60 | 1019.4 |
| 20260503110535 | 44 | 108 | 0.0 | 3.0 | 0.00 | 0.00 | 0.00 | 48 | 1010.0 |
| 20260503110503 | 38 | 136 | 0.0 | 2.0 | 0.00 | 0.00 | 0.00 | 76 | 1018.7 |
| 20260503090504 | 35 | 288 | 0.0 | 0.0 | 0.00 | 0.00 | 0.00 | 87 | 1018.3 |
| 20260503081539 | 45 | 240 | 0.0 | 2.0 | 0.00 | 0.00 | 0.00 | 45 | 1009.0 |
| 20260503081507 | 36 | 288 | 0.0 | 0.0 | 0.00 | 0.00 | 0.00 | 87 | 1018.1 |
| 20260503081122 | 45 | 240 | 0.0 | 2.0 | 0.00 | 0.00 | 0.00 | 42 | 1009.0 |
| 20260503081004 | 36 | 288 | 0.0 | 0.0 | 0.00 | 0.00 | 0.00 | 87 | 1018.1 |
| 20260503080519 | 45 | 240 | 0.0 | 2.0 | 0.00 | 0.00 | 0.00 | 42 | 1009.0 |
| 20260503080504 | 36 | 288 | 0.0 | 0.0 | 0.00 | 0.00 | 0.00 | 86 | 1018.1 |
| 20260503072520 | 45 | 172 | 0.0 | 3.0 | 0.00 | 0.00 | 0.00 | 43 | 1009.0 |
| 20260503072503 | 36 | 288 | 0.0 | 0.0 | 0.00 | 0.00 | 0.00 | 87 | 1018.0 |
| 20260503072018 | 45 | 172 | 0.0 | 4.0 | 0.00 | 0.00 | 0.00 | 43 | 1008.8 |
| 20260503072003 | 36 | 288 | 0.0 | 0.0 | 0.00 | 0.00 | 0.00 | 86 | 1018.0 |
| 20260503071531 | 45 | 128 | 0.0 | 4.0 | 0.00 | 0.00 | 0.00 | 44 | 1008.8 |
| 20260503071505 | 36 | 288 | 0.0 | 0.0 | 0.00 | 0.00 | 0.00 | 86 | 1018.0 |
| 20260503071115 | 46 | 195 | 0.0 | 1.0 | 0.00 | 0.00 | 0.00 | 44 | 1009.0 |
| 20260503071004 | 36 | 288 | 0.0 | 0.0 | 0.00 | 0.00 | 0.00 | 86 | 1018.1 |
| 20260503070516 | 46 | 196 | 0.0 | 1.0 | 0.00 | 0.00 | 0.00 | 44 | 1009.0 |
| 20260503070503 | 36 | 288 | 0.0 | 0.0 | 0.00 | 0.00 | 0.00 | 86 | 1018.1 |
| 20260503055005 | 48 | 204 | 0.0 | 4.0 | 0.00 | 0.00 | 0.00 | 39 | 1009.2 |
| 20260503055003 | 35 | 288 | 0.0 | 0.0 | 0.00 | 0.00 | 0.00 | 86 | 1018.3 |
| 20260503054521 | 48 | 214 | 0.0 | 4.0 | 0.00 | 0.00 | 0.00 | 36 | 1009.3 |
| 20260503054508 | 35 | 288 | 0.0 | 0.0 | 0.00 | 0.00 | 0.00 | 86 | 1018.4 |
| 20260503054006 | 48 | 24 | 0.0 | 3.0 | 0.00 | 0.00 | 0.00 | 37 | 1009.3 |
| 20260503053507 | 35 | 288 | 0.0 | 0.0 | 0.00 | 0.00 | 0.00 | 86 | 1018.4 |
| 20260503053504 | 48 | 82 | 1.0 | 3.0 | 0.00 | 0.00 | 0.00 | 36 | 1009.4 |
| 20260503053012 | 36 | 288 | 0.0 | 0.0 | 0.00 | 0.00 | 0.00 | 86 | 1018.4 |
| 20260503053003 | 48 | 49 | 0.0 | 2.0 | 0.00 | 0.00 | 0.00 | 37 | 1009.3 |
| 20260503052507 | 36 | 288 | 0.0 | 0.0 | 0.00 | 0.00 | 0.00 | 85 | 1018.4 |
| 20260503052503 | 49 | 49 | 0.0 | 2.0 | 0.00 | 0.00 | 0.00 | 37 | 1009.5 |
| 20260503052003 | 36 | 288 | 0.0 | 0.0 | 0.00 | 0.00 | 0.00 | 85 | 1018.4 |
| 20260503051504 | 36 | 288 | 0.0 | 0.0 | 0.00 | 0.00 | 0.00 | 85 | 1018.3 |
| 20260503051500 | 49 | 94 | 0.0 | 4.0 | 0.00 | 0.00 | 0.00 | 35 | 1009.7 |
| 20260503051100 | 49 | 113 | 0.0 | 5.0 | 0.00 | 0.00 | 0.00 | 36 | 1009.6 |
| 20260503051003 | 36 | 288 | 0.0 | 0.0 | 0.00 | 0.00 | 0.00 | 85 | 1018.4 |
| 20260503050600 | 49 | 113 | 0.0 | 5.0 | 0.00 | 0.00 | 0.00 | 35 | 1009.6 |
| 20260503050504 | 36 | 288 | 0.0 | 0.0 | 0.00 | 0.00 | 0.00 | 85 | 1018.4 |
| 20260503050007 | 36 | 288 | 0.0 | 0.0 | 0.00 | 0.00 | 0.00 | 84 | 1018.4 |
| 20260503045600 | 49 | 69 | 0.0 | 4.0 | 0.00 | 0.00 | 0.00 | 34 | 1009.7 |
| 20260503045503 | 36 | 288 | 0.0 | 0.0 | 0.00 | 0.00 | 0.00 | 84 | 1018.4 |
| 20260503045059 | 49 | 172 | 0.0 | 4.0 | 0.00 | 0.00 | 0.00 | 35 | 1009.7 |
| 20260503045007 | 36 | 288 | 0.0 | 0.0 | 0.00 | 0.00 | 0.00 | 84 | 1018.4 |
| 20260503044557 | 49 | 359 | 0.0 | 3.0 | 0.00 | 0.00 | 0.00 | 36 | 1009.8 |
| 20260503044505 | 36 | 288 | 0.0 | 0.0 | 0.00 | 0.00 | 0.00 | 83 | 1018.4 |
| 20260503044056 | 49 | 154 | 1.0 | 3.0 | 0.00 | 0.00 | 0.00 | 33 | 1009.8 |
| 20260503044005 | 37 | 288 | 0.0 | 0.0 | 0.00 | 0.00 | 0.00 | 83 | 1018.4 |
| 20260503043556 | 50 | 236 | 1.0 | 3.0 | 0.00 | 0.00 | 0.00 | 33 | 1009.7 |
| 20260503043503 | 37 | 288 | 0.0 | 0.0 | 0.00 | 0.00 | 0.00 | 82 | 1018.5 |
| 20260503043056 | 50 | 104 | 1.0 | 5.0 | 0.00 | 0.00 | 0.00 | 34 | 1009.8 |
| 20260503043008 | 37 | 288 | 0.0 | 0.0 | 0.00 | 0.00 | 0.00 | 83 | 1018.4 |
| 20260503042555 | 50 | 179 | 0.0 | 5.0 | 0.00 | 0.00 | 0.00 | 34 | 1009.9 |
| 20260503042507 | 37 | 288 | 0.0 | 0.0 | 0.00 | 0.00 | 0.00 | 82 | 1018.4 |
| 20260503042055 | 50 | 244 | 0.0 | 4.0 | 0.00 | 0.00 | 0.00 | 33 | 1009.8 |
| 20260503042006 | 37 | 288 | 0.0 | 0.0 | 0.00 | 0.00 | 0.00 | 82 | 1018.4 |
| 20260503041555 | 50 | 227 | 0.0 | 7.0 | 0.00 | 0.00 | 0.00 | 33 | 1010.0 |
| 20260503041516 | 37 | 288 | 0.0 | 0.0 | 0.00 | 0.00 | 0.00 | 81 | 1018.4 |
| 20260503041053 | 50 | 101 | 0.0 | 3.0 | 0.00 | 0.00 | 0.00 | 33 | 1010.0 |
| 20260503041006 | 37 | 288 | 0.0 | 0.0 | 0.00 | 0.00 | 0.00 | 80 | 1018.5 |
| 20260503040553 | 50 | 101 | 1.0 | 3.0 | 0.00 | 0.00 | 0.00 | 33 | 1009.9 |
| 20260503040509 | 37 | 288 | 0.0 | 0.0 | 0.00 | 0.00 | 0.00 | 80 | 1018.5 |
| 20260503040056 | 50 | 131 | 0.0 | 3.0 | 0.00 | 0.00 | 0.00 | 35 | 1009.9 |
| 20260503040004 | 37 | 288 | 0.0 | 0.0 | 0.00 | 0.00 | 0.00 | 80 | 1018.6 |
| 20260503035552 | 50 | 134 | 0.0 | 3.0 | 0.00 | 0.00 | 0.00 | 33 | 1009.8 |
| 20260503035505 | 38 | 288 | 0.0 | 0.0 | 0.00 | 0.00 | 0.00 | 80 | 1018.6 |
| 20260503035052 | 50 | 78 | 0.0 | 2.0 | 0.00 | 0.00 | 0.00 | 35 | 1009.9 |
| 20260503035002 | 38 | 288 | 0.0 | 0.0 | 0.00 | 0.00 | 0.00 | 80 | 1018.6 |
| 20260503034606 | 50 | 127 | 0.0 | 2.0 | 0.00 | 0.00 | 0.00 | 35 | 1009.9 |
| 20260503034504 | 38 | 288 | 0.0 | 0.0 | 0.00 | 0.00 | 0.00 | 80 | 1018.7 |
| 20260503034052 | 50 | 127 | 0.0 | 3.0 | 0.00 | 0.00 | 0.00 | 33 | 1009.9 |
| 20260503034003 | 38 | 288 | 0.0 | 0.0 | 0.00 | 0.00 | 0.00 | 79 | 1018.7 |
| 20260503033554 | 50 | 127 | 0.0 | 3.0 | 0.00 | 0.00 | 0.00 | 33 | 1009.8 |
| 20260503033503 | 38 | 288 | 0.0 | 0.0 | 0.00 | 0.00 | 0.00 | 81 | 1018.6 |
| 20260503033056 | 50 | 131 | 0.0 | 3.0 | 0.00 | 0.00 | 0.00 | 33 | 1009.9 |
| 20260503033008 | 38 | 288 | 0.0 | 0.0 | 0.00 | 0.00 | 0.00 | 79 | 1018.6 |
| 20260503032551 | 50 | 58 | 0.0 | 5.0 | 0.00 | 0.00 | 0.00 | 33 | 1009.9 |
| 20260503032503 | 38 | 288 | 0.0 | 0.0 | 0.00 | 0.00 | 0.00 | 78 | 1018.6 |
| 20260503032053 | 50 | 49 | 0.0 | 5.0 | 0.00 | 0.00 | 0.00 | 34 | 1009.8 |
| 20260503032007 | 39 | 288 | 0.0 | 0.0 | 0.00 | 0.00 | 0.00 | 78 | 1018.6 |
| 20260503031554 | 50 | 189 | 0.0 | 1.0 | 0.00 | 0.00 | 0.00 | 36 | 1009.9 |
| 20260503031512 | 39 | 288 | 0.0 | 0.0 | 0.00 | 0.00 | 0.00 | 78 | 1018.6 |
| 20260503031051 | 50 | 207 | 0.0 | 0.0 | 0.00 | 0.00 | 0.00 | 35 | 1009.8 |
| 20260503031006 | 39 | 288 | 0.0 | 0.0 | 0.00 | 0.00 | 0.00 | 77 | 1018.7 |
| 20260503030552 | 50 | 207 | 0.0 | 0.0 | 0.00 | 0.00 | 0.00 | 35 | 1009.8 |
| 20260503030507 | 39 | 288 | 0.0 | 0.0 | 0.00 | 0.00 | 0.00 | 77 | 1018.6 |
| 20260503030050 | 50 | 207 | 0.0 | 1.0 | 0.00 | 0.00 | 0.00 | 34 | 1009.8 |
| 20260503030016 | 39 | 288 | 0.0 | 0.0 | 0.00 | 0.00 | 0.00 | 77 | 1018.6 |
| 20260503025550 | 51 | 207 | 0.0 | 1.0 | 0.00 | 0.00 | 0.00 | 34 | 1009.8 |
| 20260503025506 | 39 | 288 | 0.0 | 0.0 | 0.00 | 0.00 | 0.00 | 76 | 1018.6 |
| 20260503025050 | 51 | 207 | 0.0 | 0.0 | 0.00 | 0.00 | 0.00 | 35 | 1009.8 |
| 20260503025007 | 39 | 288 | 0.0 | 0.0 | 0.00 | 0.00 | 0.00 | 74 | 1018.6 |
| 20260503024552 | 51 | 207 | 0.0 | 2.0 | 0.00 | 0.00 | 0.00 | 33 | 1009.8 |
| 20260503024504 | 40 | 288 | 0.0 | 0.0 | 0.00 | 0.00 | 0.00 | 75 | 1018.6 |
| 20260503024050 | 51 | 209 | 0.0 | 3.0 | 0.00 | 0.00 | 0.00 | 31 | 1009.8 |
| 20260503024004 | 40 | 288 | 0.0 | 0.0 | 0.00 | 0.00 | 0.00 | 74 | 1018.6 |
| 20260503023550 | 51 | 208 | 0.0 | 3.0 | 0.00 | 0.00 | 0.00 | 32 | 1009.7 |
| 20260503023503 | 40 | 288 | 0.0 | 0.0 | 0.00 | 0.00 | 0.00 | 73 | 1018.5 |
| 20260503023050 | 51 | 67 | 0.0 | 2.0 | 0.00 | 0.00 | 0.00 | 33 | 1009.7 |
| 20260503023005 | 40 | 288 | 0.0 | 0.0 | 0.00 | 0.00 | 0.00 | 73 | 1018.5 |
| 20260503022549 | 51 | 160 | 0.0 | 1.0 | 0.00 | 0.00 | 0.00 | 33 | 1009.6 |
| 20260503022503 | 40 | 288 | 0.0 | 0.0 | 0.00 | 0.00 | 0.00 | 72 | 1018.5 |
| 20260503022053 | 51 | 164 | 0.0 | 1.0 | 0.00 | 0.00 | 0.00 | 36 | 1009.6 |
| 20260503022010 | 41 | 288 | 0.0 | 0.0 | 0.00 | 0.00 | 0.00 | 73 | 1018.5 |
| 20260503021549 | 51 | 164 | 0.0 | 0.0 | 0.00 | 0.00 | 0.00 | 35 | 1009.7 |
| 20260503021508 | 41 | 288 | 0.0 | 0.0 | 0.00 | 0.00 | 0.00 | 71 | 1018.4 |
| 20260503021055 | 51 | 164 | 0.0 | 1.0 | 0.00 | 0.00 | 0.00 | 35 | 1009.8 |
| 20260503021011 | 41 | 288 | 0.0 | 0.0 | 0.00 | 0.00 | 0.00 | 70 | 1018.4 |
| 20260503020550 | 51 | 164 | 0.0 | 1.0 | 0.00 | 0.00 | 0.00 | 35 | 1009.9 |
| 20260503020503 | 41 | 288 | 0.0 | 0.0 | 0.00 | 0.00 | 0.00 | 69 | 1018.3 |
| 20260503020049 | 51 | 164 | 0.0 | 0.0 | 0.00 | 0.00 | 0.00 | 35 | 1009.8 |
| 20260503020014 | 42 | 288 | 0.0 | 0.0 | 0.00 | 0.00 | 0.00 | 67 | 1018.3 |
| 20260503015551 | 51 | 164 | 0.0 | 0.0 | 0.00 | 0.00 | 0.00 | 38 | 1009.9 |
| 20260503015506 | 42 | 288 | 0.0 | 0.0 | 0.00 | 0.00 | 0.00 | 67 | 1018.2 |
| 20260503015051 | 51 | 164 | 0.0 | 0.0 | 0.00 | 0.00 | 0.00 | 38 | 1010.0 |
| 20260503015010 | 42 | 288 | 0.0 | 0.0 | 0.00 | 0.00 | 0.00 | 64 | 1018.2 |
| 20260503014603 | 51 | 164 | 0.0 | 0.0 | 0.00 | 0.00 | 0.00 | 40 | 1010.0 |
| 20260503014518 | 43 | 288 | 0.0 | 0.0 | 0.00 | 0.00 | 0.00 | 65 | 1018.1 |
| 20260503014051 | 51 | 164 | 0.0 | 0.0 | 0.00 | 0.00 | 0.00 | 36 | 1009.9 |
| 20260503014008 | 43 | 288 | 0.0 | 0.0 | 0.00 | 0.00 | 0.00 | 62 | 1018.0 |
| 20260503013549 | 51 | 164 | 0.0 | 0.0 | 0.00 | 0.00 | 0.00 | 34 | 1009.9 |
| 20260503013506 | 43 | 288 | 0.0 | 0.0 | 0.00 | 0.00 | 0.00 | 62 | 1017.9 |
| 20260503013049 | 51 | 164 | 0.0 | 0.0 | 0.00 | 0.00 | 0.00 | 33 | 1010.0 |
| 20260503013020 | 44 | 288 | 0.0 | 0.0 | 0.00 | 0.00 | 0.00 | 60 | 1017.9 |
| 20260503012550 | 51 | 164 | 0.0 | 0.0 | 0.00 | 0.00 | 0.00 | 35 | 1010.0 |
| 20260503012504 | 44 | 288 | 0.0 | 0.0 | 0.00 | 0.00 | 0.00 | 60 | 1017.8 |
| 20260503012047 | 51 | 164 | 0.0 | 0.0 | 0.00 | 0.00 | 0.00 | 35 | 1009.9 |
| 20260503012003 | 44 | 288 | 0.0 | 0.0 | 0.00 | 0.00 | 0.00 | 60 | 1017.7 |
| 20260503011550 | 51 | 164 | 0.0 | 0.0 | 0.00 | 0.00 | 0.00 | 35 | 1009.9 |
| 20260503011506 | 45 | 288 | 0.0 | 0.0 | 0.00 | 0.00 | 0.00 | 62 | 1017.6 |
| 20260503011050 | 52 | 164 | 0.0 | 0.0 | 0.00 | 0.00 | 0.00 | 35 | 1009.8 |
| 20260503011006 | 45 | 288 | 0.0 | 0.0 | 0.00 | 0.00 | 0.00 | 61 | 1017.6 |
| 20260503010549 | 52 | 164 | 0.0 | 1.0 | 0.00 | 0.00 | 0.00 | 35 | 1009.8 |
| 20260503010503 | 46 | 288 | 0.0 | 0.0 | 0.00 | 0.00 | 0.00 | 58 | 1017.5 |
| 20260503010051 | 52 | 164 | 0.0 | 1.0 | 0.00 | 0.00 | 0.00 | 34 | 1009.7 |
| 20260503010011 | 46 | 288 | 0.0 | 1.0 | 0.00 | 0.00 | 0.00 | 60 | 1017.5 |
| 20260503005550 | 52 | 164 | 0.0 | 1.0 | 0.00 | 0.00 | 0.00 | 32 | 1009.6 |
| 20260503005504 | 45 | 288 | 0.0 | 1.0 | 0.00 | 0.00 | 0.00 | 63 | 1017.5 |
| 20260503005149 | 52 | 164 | 0.0 | 0.0 | 0.00 | 0.00 | 0.00 | 32 | 1009.6 |
| 20260503005007 | 46 | 288 | 0.0 | 0.0 | 0.00 | 0.00 | 0.00 | 62 | 1017.5 |
| 20260503004549 | 52 | 164 | 0.0 | 0.0 | 0.00 | 0.00 | 0.00 | 33 | 1009.4 |
| 20260503004514 | 47 | 288 | 0.0 | 2.0 | 0.00 | 0.00 | 0.00 | 58 | 1017.4 |
| 20260503004050 | 52 | 164 | 0.0 | 0.0 | 0.00 | 0.00 | 0.00 | 32 | 1009.4 |
| 20260503004007 | 47 | 288 | 0.0 | 2.0 | 0.00 | 0.00 | 0.00 | 56 | 1017.3 |
| 20260503003547 | 53 | 164 | 0.0 | 0.0 | 0.00 | 0.00 | 0.00 | 32 | 1009.4 |
| 20260503003506 | 47 | 284 | 0.0 | 1.0 | 0.00 | 0.00 | 0.00 | 58 | 1017.3 |
| 20260503003055 | 53 | 164 | 0.0 | 0.0 | 0.00 | 0.00 | 0.00 | 32 | 1009.4 |
| 20260503003016 | 47 | 287 | 0.0 | 2.0 | 0.00 | 0.00 | 0.00 | 61 | 1017.2 |
| 20260503002548 | 53 | 164 | 0.0 | 0.0 | 0.00 | 0.00 | 0.00 | 32 | 1009.3 |
| 20260503002506 | 48 | 287 | 0.0 | 2.0 | 0.00 | 0.00 | 0.00 | 56 | 1017.2 |
| 20260503002048 | 53 | 164 | 0.0 | 0.0 | 0.00 | 0.00 | 0.00 | 31 | 1009.4 |
| 20260503002009 | 48 | 287 | 0.0 | 2.0 | 0.00 | 0.00 | 0.00 | 56 | 1017.2 |
| 20260503001606 | 53 | 164 | 0.0 | 2.0 | 0.00 | 0.00 | 0.00 | 30 | 1009.3 |
| 20260503001524 | 48 | 285 | 0.0 | 2.0 | 0.00 | 0.00 | 0.00 | 60 | 1017.1 |
| 20260503001047 | 54 | 360 | 0.0 | 2.0 | 0.00 | 0.00 | 0.00 | 31 | 1009.1 |
| 20260503001003 | 48 | 295 | 0.0 | 2.0 | 0.00 | 0.00 | 0.00 | 55 | 1017.0 |
| 20260503000544 | 54 | 360 | 0.0 | 2.0 | 0.00 | 0.00 | 0.00 | 32 | 1009.2 |
| 20260503000504 | 48 | 295 | 0.0 | 2.0 | 0.00 | 0.00 | 0.00 | 58 | 1016.9 |
| 20260503000048 | 54 | 360 | 0.0 | 1.0 | 0.00 | 0.00 | 0.00 | 32 | 1009.1 |
| 20260503000005 | 48 | 295 | 0.0 | 2.0 | 0.00 | 0.00 | 0.00 | 52 | 1016.8 |
| 20260502235544 | 54 | 360 | 0.0 | 2.0 | 0.00 | 0.00 | 0.00 | 31 | 1009.0 |
| 20260502235503 | 48 | 294 | 0.0 | 1.0 | 0.00 | 0.00 | 0.00 | 53 | 1016.8 |
| 20260502235044 | 55 | 360 | 0.0 | 3.0 | 0.00 | 0.00 | 0.00 | 32 | 1009.2 |
| 20260502235006 | 49 | 295 | 0.0 | 1.0 | 0.00 | 0.00 | 0.00 | 53 | 1016.8 |
| 20260502234548 | 55 | 360 | 0.0 | 3.0 | 0.00 | 0.00 | 0.00 | 30 | 1009.2 |
| 20260502234513 | 49 | 295 | 0.0 | 1.0 | 0.00 | 0.00 | 0.00 | 54 | 1016.7 |
| 20260502234044 | 55 | 360 | 0.0 | 3.0 | 0.00 | 0.00 | 0.00 | 29 | 1009.2 |
| 20260502234008 | 49 | 295 | 0.0 | 2.0 | 0.00 | 0.00 | 0.00 | 52 | 1016.7 |
| 20260502233543 | 55 | 360 | 0.0 | 3.0 | 0.00 | 0.00 | 0.00 | 26 | 1009.1 |
| 20260502233508 | 49 | 295 | 0.0 | 3.0 | 0.00 | 0.00 | 0.00 | 46 | 1016.7 |
| 20260502233043 | 56 | 360 | 0.0 | 5.0 | 0.00 | 0.00 | 0.00 | 28 | 1009.0 |
| 20260502233019 | 50 | 290 | 0.0 | 3.0 | 0.00 | 0.00 | 0.00 | 54 | 1016.8 |
| 20260502232544 | 56 | 360 | 1.0 | 5.0 | 0.00 | 0.00 | 0.00 | 26 | 1009.0 |
| 20260502232507 | 50 | 299 | 1.0 | 5.0 | 0.00 | 0.00 | 0.00 | 46 | 1016.8 |
| 20260502232043 | 56 | 360 | 0.0 | 3.0 | 0.00 | 0.00 | 0.00 | 27 | 1008.9 |
| 20260502232003 | 50 | 291 | 1.0 | 5.0 | 0.00 | 0.00 | 0.00 | 50 | 1016.7 |
| 20260502231542 | 56 | 360 | 0.0 | 2.0 | 0.00 | 0.00 | 0.00 | 28 | 1008.9 |
| 20260502231508 | 50 | 291 | 1.0 | 4.0 | 0.00 | 0.00 | 0.00 | 48 | 1016.7 |
| 20260502231042 | 57 | 360 | 0.0 | 2.0 | 0.00 | 0.00 | 0.00 | 28 | 1009.0 |
| 20260502231003 | 50 | 294 | 2.0 | 4.0 | 0.00 | 0.00 | 0.00 | 47 | 1016.7 |
| 20260502230543 | 57 | 360 | 0.0 | 2.0 | 0.00 | 0.00 | 0.00 | 27 | 1008.9 |
| 20260502230504 | 51 | 294 | 2.0 | 5.0 | 0.00 | 0.00 | 0.00 | 46 | 1016.7 |
| 20260502230042 | 57 | 360 | 0.0 | 3.0 | 0.00 | 0.00 | 0.00 | 29 | 1008.9 |
| 20260502230004 | 51 | 297 | 2.0 | 5.0 | 0.00 | 0.00 | 0.00 | 46 | 1016.7 |
| 20260502225541 | 58 | 360 | 0.0 | 3.0 | 0.00 | 0.00 | 0.00 | 30 | 1008.7 |
| 20260502225504 | 52 | 294 | 2.0 | 4.0 | 0.00 | 0.00 | 0.00 | 47 | 1016.7 |
| 20260502225041 | 58 | 360 | 0.0 | 2.0 | 0.00 | 0.00 | 0.00 | 25 | 1008.6 |
| 20260502225003 | 52 | 293 | 0.0 | 3.0 | 0.00 | 0.00 | 0.00 | 50 | 1016.6 |
| 20260502224541 | 58 | 360 | 0.0 | 3.0 | 0.00 | 0.00 | 0.00 | 24 | 1008.5 |
| 20260502224508 | 52 | 293 | 1.0 | 3.0 | 0.00 | 0.00 | 0.00 | 44 | 1016.6 |
| 20260502224042 | 58 | 360 | 0.0 | 2.0 | 0.00 | 0.00 | 0.00 | 24 | 1008.5 |
| 20260502224004 | 52 | 300 | 1.0 | 3.0 | 0.00 | 0.00 | 0.00 | 47 | 1016.7 |
| 20260502223541 | 58 | 360 | 0.0 | 2.0 | 0.00 | 0.00 | 0.00 | 25 | 1008.5 |
| 20260502223504 | 52 | 300 | 1.0 | 3.0 | 0.00 | 0.00 | 0.00 | 50 | 1016.7 |
| 20260502223041 | 58 | 360 | 0.0 | 3.0 | 0.00 | 0.00 | 0.00 | 24 | 1008.5 |
| 20260502223012 | 51 | 302 | 0.0 | 6.0 | 0.00 | 0.00 | 0.00 | 51 | 1016.6 |
| 20260502222541 | 58 | 130 | 0.0 | 3.0 | 0.00 | 0.00 | 0.00 | 26 | 1008.6 |
| 20260502222508 | 52 | 280 | 2.0 | 6.0 | 0.00 | 0.00 | 0.00 | 47 | 1016.6 |
| 20260502222044 | 58 | 265 | 0.0 | 3.0 | 0.00 | 0.00 | 0.00 | 25 | 1008.6 |
| 20260502222007 | 53 | 288 | 2.0 | 4.0 | 0.00 | 0.00 | 0.00 | 41 | 1016.5 |
| 20260502221544 | 58 | 212 | 0.0 | 4.0 | 0.00 | 0.00 | 0.00 | 25 | 1008.6 |
| 20260502221516 | 53 | 300 | 2.0 | 4.0 | 0.00 | 0.00 | 0.00 | 50 | 1016.5 |
| 20260502221039 | 58 | 292 | 0.0 | 4.0 | 0.00 | 0.00 | 0.00 | 27 | 1008.6 |
| 20260502221002 | 52 | 290 | 0.0 | 3.0 | 0.00 | 0.00 | 0.00 | 47 | 1016.4 |
| 20260502220539 | 58 | 120 | 0.0 | 3.0 | 0.00 | 0.00 | 0.00 | 26 | 1008.6 |
| 20260502220504 | 52 | 295 | 1.0 | 3.0 | 0.00 | 0.00 | 0.00 | 48 | 1016.4 |
| 20260502220040 | 59 | 172 | 0.0 | 3.0 | 0.00 | 0.00 | 0.00 | 27 | 1008.6 |
| 20260502220004 | 52 | 296 | 0.0 | 3.0 | 0.00 | 0.00 | 0.00 | 49 | 1016.4 |
| 20260502215539 | 59 | 169 | 0.0 | 3.0 | 0.00 | 0.00 | 0.00 | 28 | 1008.5 |
| 20260502215505 | 52 | 296 | 1.0 | 3.0 | 0.00 | 0.00 | 0.00 | 42 | 1016.4 |
| 20260502215038 | 59 | 173 | 1.0 | 3.0 | 0.00 | 0.00 | 0.00 | 26 | 1008.5 |
| 20260502215004 | 52 | 296 | 1.0 | 5.0 | 0.00 | 0.00 | 0.00 | 47 | 1016.4 |
| 20260502214548 | 59 | 216 | 0.0 | 2.0 | 0.00 | 0.00 | 0.00 | 28 | 1008.4 |
| 20260502214504 | 52 | 313 | 2.0 | 5.0 | 0.00 | 0.00 | 0.00 | 45 | 1016.3 |
| 20260502214038 | 59 | 100 | 1.0 | 5.0 | 0.00 | 0.00 | 0.00 | 25 | 1008.3 |
| 20260502214004 | 52 | 302 | 1.0 | 5.0 | 0.00 | 0.00 | 0.00 | 44 | 1016.3 |
| 20260502213541 | 59 | 49 | 0.0 | 3.0 | 0.00 | 0.00 | 0.00 | 25 | 1008.4 |
| 20260502213506 | 53 | 296 | 0.0 | 3.0 | 0.00 | 0.00 | 0.00 | 46 | 1016.3 |
| 20260502213040 | 59 | 128 | 0.0 | 2.0 | 0.00 | 0.00 | 0.00 | 26 | 1008.4 |
| 20260502213009 | 53 | 296 | 1.0 | 3.0 | 0.00 | 0.00 | 0.00 | 47 | 1016.3 |
| 20260502212538 | 59 | 153 | 0.0 | 2.0 | 0.00 | 0.00 | 0.00 | 25 | 1008.3 |
| 20260502212504 | 54 | 301 | 1.0 | 3.0 | 0.00 | 0.00 | 0.00 | 48 | 1016.3 |
| 20260502212038 | 59 | 128 | 0.0 | 3.0 | 0.00 | 0.00 | 0.00 | 26 | 1008.3 |
| 20260502212005 | 53 | 303 | 2.0 | 4.0 | 0.00 | 0.00 | 0.00 | 41 | 1016.2 |
| 20260502211538 | 59 | 295 | 0.0 | 3.0 | 0.00 | 0.00 | 0.00 | 24 | 1008.2 |
| 20260502211524 | 53 | 302 | 1.0 | 4.0 | 0.00 | 0.00 | 0.00 | 40 | 1016.2 |
| 20260502211037 | 60 | 148 | 0.0 | 3.0 | 0.00 | 0.00 | 0.00 | 27 | 1008.1 |
| 20260502211007 | 53 | 304 | 2.0 | 3.0 | 0.00 | 0.00 | 0.00 | 44 | 1016.2 |
| 20260502210537 | 60 | 66 | 0.0 | 3.0 | 0.00 | 0.00 | 0.00 | 27 | 1008.2 |
| 20260502210506 | 53 | 300 | 1.0 | 5.0 | 0.00 | 0.00 | 0.00 | 47 | 1016.2 |
| 20260502210041 | 60 | 72 | 1.0 | 3.0 | 0.00 | 0.00 | 0.00 | 27 | 1008.1 |
| 20260502210026 | 53 | 288 | 1.0 | 5.0 | 0.00 | 0.00 | 0.00 | 43 | 1016.2 |
| 20260502205537 | 60 | 131 | 1.0 | 3.0 | 0.00 | 0.00 | 0.00 | 27 | 1008.0 |
| 20260502205505 | 54 | 289 | 2.0 | 6.0 | 0.00 | 0.00 | 0.00 | 41 | 1016.3 |
| 20260502205041 | 60 | 300 | 1.0 | 3.0 | 0.00 | 0.00 | 0.00 | 25 | 1008.1 |
| 20260502205004 | 53 | 345 | 2.0 | 6.0 | 0.00 | 0.00 | 0.00 | 45 | 1016.2 |
| 20260502204536 | 59 | 176 | 0.0 | 2.0 | 0.00 | 0.00 | 0.00 | 25 | 1007.9 |
| 20260502204504 | 53 | 297 | 2.0 | 4.0 | 0.00 | 0.00 | 0.00 | 44 | 1016.1 |
| 20260502204037 | 59 | 203 | 0.0 | 2.0 | 0.00 | 0.00 | 0.00 | 27 | 1008.1 |
| 20260502204004 | 54 | 250 | 2.0 | 4.0 | 0.00 | 0.00 | 0.00 | 38 | 1016.2 |
| 20260502203536 | 59 | 203 | 0.0 | 2.0 | 0.00 | 0.00 | 0.00 | 27 | 1008.1 |
| 20260502203504 | 54 | 301 | 3.0 | 4.0 | 0.00 | 0.00 | 0.00 | 40 | 1016.2 |
| 20260502203038 | 59 | 175 | 0.0 | 2.0 | 0.00 | 0.00 | 0.00 | 27 | 1008.3 |
| 20260502203008 | 53 | 292 | 1.0 | 2.0 | 0.00 | 0.00 | 0.00 | 50 | 1016.2 |
| 20260502202535 | 59 | 174 | 0.0 | 3.0 | 0.00 | 0.00 | 0.00 | 29 | 1008.3 |
| 20260502202503 | 53 | 302 | 0.0 | 4.0 | 0.00 | 0.00 | 0.00 | 46 | 1016.3 |
| 20260502202036 | 59 | 15 | 0.0 | 3.0 | 0.00 | 0.00 | 0.00 | 30 | 1008.4 |
| 20260502202006 | 53 | 300 | 1.0 | 4.0 | 0.00 | 0.00 | 0.00 | 43 | 1016.3 |
| 20260502201537 | 59 | 279 | 1.0 | 5.0 | 0.00 | 0.00 | 0.00 | 25 | 1008.4 |
| 20260502201512 | 53 | 298 | 2.0 | 4.0 | 0.00 | 0.00 | 0.00 | 44 | 1016.3 |
| 20260502201035 | 59 | 311 | 1.0 | 5.0 | 0.00 | 0.00 | 0.00 | 27 | 1008.5 |
| 20260502201007 | 54 | 290 | 1.0 | 4.0 | 0.00 | 0.00 | 0.00 | 40 | 1016.4 |
| 20260502200533 | 59 | 93 | 0.0 | 3.0 | 0.00 | 0.00 | 0.00 | 27 | 1008.5 |
| 20260502200504 | 54 | 302 | 3.0 | 4.0 | 0.00 | 0.00 | 0.00 | 41 | 1016.5 |
| 20260502200034 | 59 | 89 | 0.0 | 3.0 | 0.00 | 0.00 | 0.00 | 26 | 1008.7 |
| 20260502200015 | 54 | 278 | 2.0 | 4.0 | 0.00 | 0.00 | 0.00 | 43 | 1016.5 |
| 20260502195632 | 60 | 109 | 1.0 | 3.0 | 0.00 | 0.00 | 0.00 | 26 | 1008.6 |
| 20260502195506 | 54 | 293 | 1.0 | 2.0 | 0.00 | 0.00 | 0.00 | 42 | 1016.5 |
| 20260502195035 | 60 | 129 | 1.0 | 3.0 | 0.00 | 0.00 | 0.00 | 30 | 1008.7 |
| 20260502195009 | 55 | 56 | 0.0 | 3.0 | 0.00 | 0.00 | 0.00 | 43 | 1016.5 |
| 20260502194536 | 60 | 145 | 0.0 | 2.0 | 0.00 | 0.00 | 0.00 | 28 | 1008.8 |
| 20260502194520 | 54 | 300 | 1.0 | 3.0 | 0.00 | 0.00 | 0.00 | 45 | 1016.5 |
| 20260502194033 | 60 | 134 | 0.0 | 2.0 | 0.00 | 0.00 | 0.00 | 28 | 1008.8 |
| 20260502194004 | 53 | 290 | 0.0 | 4.0 | 0.00 | 0.00 | 0.00 | 44 | 1016.6 |
| 20260502193530 | 60 | 134 | 0.0 | 3.0 | 0.00 | 0.00 | 0.00 | 27 | 1008.8 |
| 20260502193506 | 53 | 290 | 0.0 | 5.0 | 0.00 | 0.00 | 0.00 | 47 | 1016.6 |
| 20260502193035 | 60 | 86 | 0.0 | 3.0 | 0.00 | 0.00 | 0.00 | 28 | 1008.8 |
| 20260502193006 | 53 | 298 | 2.0 | 5.0 | 0.00 | 0.00 | 0.00 | 43 | 1016.5 |
| 20260502192529 | 59 | 333 | 0.0 | 3.0 | 0.00 | 0.00 | 0.00 | 28 | 1009.0 |
| 20260502192508 | 53 | 295 | 1.0 | 3.0 | 0.00 | 0.00 | 0.00 | 50 | 1016.6 |
| 20260502192032 | 59 | 342 | 0.0 | 2.0 | 0.00 | 0.00 | 0.00 | 28 | 1009.0 |
| 20260502192006 | 52 | 295 | 2.0 | 3.0 | 0.00 | 0.00 | 0.00 | 44 | 1016.7 |
| 20260502191529 | 59 | 214 | 0.0 | 4.0 | 0.00 | 0.00 | 0.00 | 30 | 1009.0 |
| 20260502191509 | 53 | 297 | 1.0 | 3.0 | 0.00 | 0.00 | 0.00 | 45 | 1016.7 |
| 20260502191026 | 59 | 232 | 1.0 | 4.0 | 0.00 | 0.00 | 0.00 | 24 | 1009.2 |
| 20260502191003 | 53 | 274 | 1.0 | 4.0 | 0.00 | 0.00 | 0.00 | 44 | 1016.7 |
| 20260502190526 | 59 | 162 | 1.0 | 3.0 | 0.00 | 0.00 | 0.00 | 26 | 1009.3 |
| 20260502190507 | 53 | 282 | 1.0 | 5.0 | 0.00 | 0.00 | 0.00 | 50 | 1016.8 |
| 20260502190025 | 59 | 105 | 1.0 | 3.0 | 0.00 | 0.00 | 0.00 | 28 | 1009.3 |
| 20260502190021 | 53 | 290 | 2.0 | 5.0 | 0.00 | 0.00 | 0.00 | 45 | 1016.8 |
| 20260502185530 | 59 | 130 | 0.0 | 4.0 | 0.00 | 0.00 | 0.00 | 29 | 1009.4 |
| 20260502185507 | 53 | 292 | 1.0 | 4.0 | 0.00 | 0.00 | 0.00 | 51 | 1016.8 |